2013 SE28

Initial reported observation by Palomar Mountain--ZTF on 2013-09-29.
(Discoverer will be defined when the object is numbered. See this note on how discoverers are determined.)

Orbit

Orbit type: Main Belt

Note: WebGL enabled browser required.

epoch2023-02-25.0
epoch JD2460000.5
perihelion date2021-08-24.91259
perihelion JD2459451.41259
argument of perihelion (°)59.29012
ascending node (°)284.70417
inclination (°)11.59494
eccentricity0.2149481
perihelion distance (AU)2.0046881
Tisserand w.r.t. Jupiter3.4
ΔV w.r.t. Earth (km/sec)9.5
semimajor axis (AU)2.5535739
mean anomaly (°)132.62417
mean daily motion (°/day)0.24153560
aphelion distance (AU)3.102
period (years)4.08
P-vector [x]0.94426366
P-vector [y]-0.32580408
P-vector [z]0.04709396
Q-vector [x]0.26565266
Q-vector [y]0.83865850
Q-vector [z]0.47547933
absolute magnitude17.27
phase slope0.15
uncertainty0
referenceMPO 740398
observations used223
oppositions7
arc length (days)3424
first opposition used2013
last opposition used2023
residual rms (arc-secs)0.70
perturbers coarse indicatorM-v
perturbers precise indicator003Ek
first observation date used2013-09-28.0
last observation date used2023-02-12.0
computer nameMPCLINUX
Minimum Orbit Intersection Distances (in AU)
for orbit epoch: 2460000.5, reference: E2023-CB0
Mercury1.63013
Venus1.30621
Earth1.02201
Mars0.69544
Jupiter2.36144
Saturn6.21958
Uranus15.4044
Neptune27.4134

Observations

231 total observations over interval: 2013 09 28.39786 – 2023 02 12.191710
These data are available for download (format description).

Date (UT) J2000 RA J2000 Dec Magn Location Ref
2013 09 28.39786 01 28 40.40 +31 50 07.8 20.1 r I41 – Palomar Mountain--ZTF MPS 478900
2013 09 28.43136 01 28 38.74 +31 50 07.4 19.8 r I41 – Palomar Mountain--ZTF MPS 478900
2013 09 28.46456 01 28 37.12 +31 50 06.6 20.2 r I41 – Palomar Mountain--ZTF MPS 478900
2013 09 29.37032 01 27 54.84 +31 49 47.2 19.7 r I41 – Palomar Mountain--ZTF MPS 478900
2013 09 29.40651 01 27 53.00 +31 49 45.9 19.8 r I41 – Palomar Mountain--ZTF MPS 478900
2013 09 29.45740 01 27 50.43 +31 49 43.6 20.0 r I41 – Palomar Mountain--ZTF MPS 478900
2013 09 30.36304 01 27 06.99 +31 49 03.7 19.5 V G96 – Mt. Lemmon Survey MPS 480315
2013 09 30.37205 01 27 06.50 +31 49 02.4 19.2 V G96 – Mt. Lemmon Survey MPS 480315
2013 09 30.38117 01 27 06.02 +31 49 02.5 19.8 V G96 – Mt. Lemmon Survey MPS 480315
2013 09 30.39029 01 27 05.56 +31 49 02.0 19.5 V G96 – Mt. Lemmon Survey MPS 480315
2013 10 02.37342 01 25 26.61 +31 46 25.7 19.9 r I41 – Palomar Mountain--ZTF MPS 480315
2013 10 02.41932 01 25 24.14 +31 46 20.0 20.0 r I41 – Palomar Mountain--ZTF MPS 480315
2013 10 02.45198 01 25 22.38 +31 46 16.4 19.7 r I41 – Palomar Mountain--ZTF MPS 480316
2013 10 03.35329 01 24 36.24 +31 44 33.8 20.2 r I41 – Palomar Mountain--ZTF MPS 480316
2013 10 03.40338 01 24 33.48 +31 44 27.4 20.0 r I41 – Palomar Mountain--ZTF MPS 480316
2013 10 03.43682 01 24 31.64 +31 44 23.0 19.7 r I41 – Palomar Mountain--ZTF MPS 480316
2013 10 04.33913 01 23 44.66 +31 42 19.6 19.7 r I41 – Palomar Mountain--ZTF MPS 480316
2013 10 04.43427 01 23 39.33 +31 42 04.8 19.6 r I41 – Palomar Mountain--ZTF MPS 480316
2013 10 04.46720 01 23 37.50 +31 41 59.4 20.0 r I41 – Palomar Mountain--ZTF MPS 480316
2013 10 28.25002 01 02 36.61 +29 07 09.1 19.9 V 703 – Catalina Sky Survey MPS 498707
2013 10 28.25507 01 02 36.47 +29 07 04.7 19.2 V 703 – Catalina Sky Survey MPS 498707
2013 10 28.26304 01 02 35.98 +29 07 01.0 19.5 V 703 – Catalina Sky Survey MPS 498707
2013 10 28.26808 01 02 35.77 +29 06 59.3 20.6 V 703 – Catalina Sky Survey MPS 498707
2013 11 09.13326 00 55 46.51 +27 05 37.8 20.1 V G96 – Mt. Lemmon Survey MPS 498707
2013 11 09.14106 00 55 46.33 +27 05 32.9 19.9 V G96 – Mt. Lemmon Survey MPS 498708
2013 11 09.14157 00 55 46.30 +27 05 32.4 19.5 V G96 – Mt. Lemmon Survey MPS 498708
2013 11 09.15052 00 55 46.07 +27 05 26.9 19.9 V G96 – Mt. Lemmon Survey MPS 498708
2013 11 09.15104 00 55 46.04 +27 05 26.4 19.8 V G96 – Mt. Lemmon Survey MPS 498708
2013 11 09.15829 00 55 45.87 +27 05 22.2 19.9 V G96 – Mt. Lemmon Survey MPS 498708
2013 11 09.15880 00 55 45.84 +27 05 21.4 19.5 V G96 – Mt. Lemmon Survey MPS 498708
2015 02 18.20075 09 01 12.32 +06 36 53.1 20.6 V G96 – Mt. Lemmon Survey MPS 1033845
2015 02 18.20730 09 01 11.97 +06 36 54.0 21.2 V G96 – Mt. Lemmon Survey MPS 1033845
2015 02 18.21238 09 01 11.70 +06 36 55.2 21.6 V G96 – Mt. Lemmon Survey MPS 1033845
2015 02 18.21747 09 01 11.39 +06 36 56.2 21.4 V G96 – Mt. Lemmon Survey MPS 1033845
2016 04 11.41246 13 47 29.032 -29 12 08.78 21.5 w F51 – Pan-STARRS 1, Haleakala MPS 1033846
2016 04 11.42280 13 47 28.418 -29 12 06.59 21.5 w F51 – Pan-STARRS 1, Haleakala MPS 1033846
2016 04 11.44349 13 47 27.183 -29 12 02.24 21.6 w F51 – Pan-STARRS 1, Haleakala MPS 1033846
2016 06 08.29263 13 09 22.202 -22 34 11.74 21.7 w F51 – Pan-STARRS 1, Haleakala MPS 1033846
2016 06 08.30293 13 09 22.170 -22 34 08.10 21.7 w F51 – Pan-STARRS 1, Haleakala MPS 1033846
2016 06 08.32352 13 09 22.100 -22 34 00.28 21.8 w F51 – Pan-STARRS 1, Haleakala MPS 1033846
2017 08 15.46046 00 26 36.805 +21 50 23.37 20.2 i F51 – Pan-STARRS 1, Haleakala MPS 1033846
2017 08 15.47215 00 26 36.781 +21 50 30.82 19.9 i F51 – Pan-STARRS 1, Haleakala MPS 1033846
2017 08 15.48382 00 26 36.763 +21 50 38.22 19.8 i F51 – Pan-STARRS 1, Haleakala MPS 1033846
2017 08 15.49561 00 26 36.743 +21 50 45.81 19.7 i F51 – Pan-STARRS 1, Haleakala MPS 1033846
2017 09 21.51012 00 07 16.615 +24 49 32.58 19.5 w F51 – Pan-STARRS 1, Haleakala MPS 1414521
2017 09 21.52294 00 07 15.888 +24 49 31.02 19.6 w F51 – Pan-STARRS 1, Haleakala MPS 1414521
2017 09 21.53571 00 07 15.173 +24 49 29.36 19.7 w F51 – Pan-STARRS 1, Haleakala MPS 1414521
2017 09 21.54855 00 07 14.450 +24 49 27.82 19.8 w F51 – Pan-STARRS 1, Haleakala MPS 1414521
2017 09 28.31396 00 01 11.91 +24 28 13.5 20.1 V 703 – Catalina Sky Survey MPS 1033846
2017 09 28.32125 00 01 11.46 +24 28 11.1 20.2 V 703 – Catalina Sky Survey MPS 1033846
2017 09 28.32728 00 01 11.16 +24 28 09.8 20.0 V 703 – Catalina Sky Survey MPS 1033846
2017 09 28.33325 00 01 10.83 +24 28 09.5 19.7 V 703 – Catalina Sky Survey MPS 1033846
2017 09 30.33070 23 59 26.197 +24 18 52.67 19.3 i F51 – Pan-STARRS 1, Haleakala MPS 1033846
2017 09 30.34176 23 59 25.581 +24 18 49.45 19.3 i F51 – Pan-STARRS 1, Haleakala MPS 1033846
2017 09 30.35274 23 59 24.981 +24 18 46.35 19.1 i F51 – Pan-STARRS 1, Haleakala MPS 1033846
2017 09 30.36374 23 59 24.364 +24 18 43.08 19.0 i F51 – Pan-STARRS 1, Haleakala MPS 1033846
2017 09 30.38049 23 59 23.10 +24 18 35.9 19.4 V G96 – Mt. Lemmon Survey MPS 1414521
2017 09 30.38527 23 59 22.84 +24 18 34.1 19.5 V G96 – Mt. Lemmon Survey MPS 1414521
2017 09 30.39002 23 59 22.58 +24 18 32.9 19.8 V G96 – Mt. Lemmon Survey MPS 1414521
2017 09 30.39812 23 59 22.13 +24 18 30.9 19.8 V G96 – Mt. Lemmon Survey MPS 1414521
2017 10 13.28564 23 49 30.50 +22 52 33.3 19.5 G G96 – Mt. Lemmon Survey MPS 1033846
2017 10 13.29084 23 49 30.28 +22 52 30.8 19.6 G G96 – Mt. Lemmon Survey MPS 1033846
2017 10 13.31058 23 49 29.48 +22 52 21.1 19.5 G G96 – Mt. Lemmon Survey MPS 1033846
2017 10 13.31578 23 49 29.26 +22 52 18.7 19.4 G G96 – Mt. Lemmon Survey MPS 1033846
2017 10 16.23011 23 47 46.59 +22 28 21.4 18.6 G 703 – Catalina Sky Survey MPS 1033846
2017 10 16.23549 23 47 46.34 +22 28 18.7 19.3 G 703 – Catalina Sky Survey MPS 1033846
2017 10 16.24084 23 47 46.20 +22 28 16.3 19.4 G 703 – Catalina Sky Survey MPS 1033846
2017 10 16.24622 23 47 45.97 +22 28 13.2 19.7 G 703 – Catalina Sky Survey MPS 1033846
2017 10 21.17959 23 45 25.98 +21 45 42.8 20.0 G G96 – Mt. Lemmon Survey MPS 1033846
2017 10 21.18481 23 45 25.85 +21 45 39.9 19.6 G G96 – Mt. Lemmon Survey MPS 1033846
2017 10 21.20869 23 45 25.21 +21 45 27.8 19.5 G G96 – Mt. Lemmon Survey MPS 1033846
2017 10 21.21395 23 45 25.07 +21 45 24.5 19.6 G G96 – Mt. Lemmon Survey MPS 1033846
2017 10 27.18773 23 43 39.13 +20 52 46.5 20.1 G G96 – Mt. Lemmon Survey MPS 1033846
2017 10 27.19530 23 43 39.02 +20 52 42.5 20.1 G G96 – Mt. Lemmon Survey MPS 1033846
2017 10 27.20062 23 43 38.93 +20 52 39.5 20.2 G G96 – Mt. Lemmon Survey MPS 1033846
2017 10 27.20591 23 43 38.87 +20 52 36.7 19.9 G G96 – Mt. Lemmon Survey MPS 1033846
2017 11 15.16063 23 46 03.39 +18 23 29.5 20.9 G G96 – Mt. Lemmon Survey MPS 1033846
2017 11 15.16639 23 46 03.53 +18 23 27.4 20.5 G G96 – Mt. Lemmon Survey MPS 1033846
2017 11 15.17209 23 46 03.66 +18 23 25.3 20.6 G G96 – Mt. Lemmon Survey MPS 1033846
2017 11 15.17780 23 46 03.78 +18 23 23.1 20.5 G G96 – Mt. Lemmon Survey MPS 1033846
2017 11 26.13395 23 52 37.82 +17 23 01.8 20.5 G G96 – Mt. Lemmon Survey MPS 1033846
2017 11 26.13918 23 52 38.08 +17 23 00.1 20.6 G G96 – Mt. Lemmon Survey MPS 1033846
2017 11 26.14447 23 52 38.28 +17 22 58.7 20.1 G G96 – Mt. Lemmon Survey MPS 1033846
2017 11 26.14970 23 52 38.51 +17 22 56.5 20.1 G G96 – Mt. Lemmon Survey MPS 1033846
2017 12 14.11006 00 09 56.88 +16 34 47.1 20.8 G G96 – Mt. Lemmon Survey MPS 1033846
2017 12 14.11573 00 09 57.24 +16 34 47.3 20.8 G G96 – Mt. Lemmon Survey MPS 1033846
2017 12 14.12142 00 09 57.64 +16 34 45.6 21.2 G G96 – Mt. Lemmon Survey MPS 1033846
2017 12 14.12712 00 09 58.10 +16 34 46.0 21.2 G G96 – Mt. Lemmon Survey MPS 1033846
2019 01 03.57776 09 16 30.665 +09 11 17.27 21.7 w F51 – Pan-STARRS 1, Haleakala MPS 1033846
2019 01 03.58957 09 16 30.170 +09 11 16.15 22.0 w F51 – Pan-STARRS 1, Haleakala MPS 1033846
2019 01 03.60130 09 16 29.671 +09 11 15.40 22.0 w F51 – Pan-STARRS 1, Haleakala MPS 1033846
2019 01 03.61306 09 16 29.172 +09 11 14.74 21.9 w F51 – Pan-STARRS 1, Haleakala MPS 1033846
2021 06 09.424830 22 51 35.35 +00 18 13.6 20.91 G G96 – Mt. Lemmon Survey MPS 1414521
2021 06 09.431112 22 51 35.78 +00 18 19.3 21.15 G G96 – Mt. Lemmon Survey MPS 1414521
2021 06 09.437405 22 51 36.20 +00 18 25.1 21.10 G G96 – Mt. Lemmon Survey MPS 1414521
2021 06 20.523150 23 03 20.093 +03 03 27.86 20.88 w F51 – Pan-STARRS 1, Haleakala MPS 1414521
